FW6321 Weather Reports


time (UTC)temp
C
wind
direction
speed
KPH
gust
KPH
rain 1hr
cm
rain 24hr
cm
rain mn
cm
humidity
%
barometer
mb
20260904131554 18 228 16.1 32.2 0.00 0.23 0.23 94 1012.2
20260904131546 18 259 16.1 32.2 0.03 0.23 0.23 94 1012.2
20260904131040 18 230 14.5 29.0 0.03 0.23 0.23 95 1012.0
20260904130051 18 222 12.9 27.4 0.03 0.23 0.23 95 1012.2
20260904125553 18 242 11.3 22.5 0.03 0.23 0.23 95 1012.1
20260904125054 18 256 11.3 22.5 0.05 0.23 0.23 95 1012.1
20260904124555 18 262 14.5 30.6 0.18 0.23 0.23 95 1012.1
20260904124053 18 231 17.7 30.6 0.18 0.23 0.23 95 1011.9
20260904123553 18 239 17.7 32.2 0.18 0.23 0.23 95 1012.0
20260904123056 18 200 19.3 37.0 0.18 0.23 0.23 95 1011.9
20260904122555 18 256 19.3 37.0 0.20 0.23 0.23 94 1011.9
20260904122054 18 231 17.7 38.6 0.23 0.23 0.23 95 1011.8
20260904121552 18 288 19.3 38.6 0.23 0.23 0.20 94 1011.8
20260904121055 18 231 17.7 32.2 0.20 0.20 0.20 94 1011.8
20260904121043 18 250 14.5 32.2 0.20 0.20 0.20 94 1011.7
20260904120052 18 247 14.5 30.6 0.20 0.20 0.20 93 1011.6
20260904115548 19 281 16.1 30.6 0.20 0.20 0.20 92 1011.6
20260904115049 19 281 12.9 25.7 0.18 0.18 0.15 91 1011.5
20260904114550 20 278 12.9 35.4 0.05 0.05 0.05 91 1011.2
20260904114049 20 274 17.7 35.4 0.05 0.05 0.05 92 1011.3
20260904113553 20 229 19.3 41.8 0.05 0.05 0.05 92 1011.0
20260904113542 21 239 20.9 41.8 0.05 0.05 0.05 91 1011.1
20260904112549 21 225 20.9 40.2 0.03 0.03 0.03 90 1011.1
20260904112048 21 237 24.1 56.3 0.00 0.00 0.00 89 1011.0
20260904111548 21 249 24.1 56.3 0.00 0.00 0.00 89 1011.0
20260904111541 21 218 22.5 51.5 0.00 0.03 0.00 87 1010.8
20260904110600 21 139 24.1 49.9 0.00 0.03 0.00 86 1010.9
20260904110055 22 277 25.7 53.1 0.00 0.03 0.00 84 1010.8
20260904110044 22 179 24.1 49.9 0.00 0.03 0.00 85 1011.0
20260904105037 22 48 25.7 53.1 0.00 0.03 0.00 84 1010.9
20260904104535 22 239 25.7 48.3 0.00 0.03 0.00 85 1011.0
20260904104033 22 229 24.1 48.3 0.00 0.03 0.00 85 1011.0
20260904103535 22 238 25.7 48.3 0.00 0.03 0.00 85 1010.9
20260904103031 21 206 27.4 56.3 0.00 0.03 0.00 85 1010.9
20260904102532 21 194 25.7 56.3 0.00 0.03 0.00 85 1010.9
20260904102035 21 229 25.7 49.9 0.00 0.03 0.00 85 1011.0
20260904101552 21 241 27.4 53.1 0.00 0.03 0.00 87 1011.3
20260904101533 21 218 25.7 45.1 0.00 0.03 0.00 86 1011.0
20260904100530 21 214 25.7 54.7 0.00 0.03 0.00 87 1011.0
20260904100033 21 253 20.9 54.7 0.00 0.03 0.00 88 1011.0
20260904095531 21 263 17.7 40.2 0.00 0.03 0.00 88 1011.0
20260904095033 21 216 17.7 33.8 0.00 0.03 0.00 88 1011.0
20260904094532 21 183 17.7 33.8 0.00 0.03 0.00 88 1010.9
20260904094036 21 197 17.7 35.4 0.00 0.03 0.00 88 1011.0
20260904094025 21 216 17.7 35.4 0.00 0.03 0.00 88 1011.0
20260904093527 21 241 16.1 33.8 0.00 0.03 0.00 89 1011.0
20260904092536 21 210 16.1 30.6 0.00 0.03 0.00 89 1011.1
20260904092030 21 236 16.1 30.6 0.00 0.03 0.00 89 1011.1
20260904091530 21 214 14.5 40.2 0.00 0.03 0.00 89 1011.1
20260904091033 21 256 17.7 40.2 0.00 0.03 0.00 90 1011.1
20260904090622 21 245 14.5 32.2 0.00 0.03 0.00 90 1011.1
20260904090547 21 185 16.1 37.0 0.00 0.03 0.00 89 1011.2
20260904090038 21 208 16.1 32.2 0.00 0.03 0.00 90 1011.1
20260904085035 21 215 16.1 33.8 0.00 0.03 0.00 90 1010.9
20260904085026 21 200 16.1 33.8 0.00 0.03 0.00 90 1010.9
20260904084031 21 229 16.1 32.2 0.00 0.03 0.00 90 1011.0
20260904084020 21 202 17.7 46.7 0.00 0.03 0.00 89 1011.0
20260904083030 21 185 16.1 46.7 0.00 0.03 0.00 89 1011.0
20260904082537 21 185 16.1 45.1 0.00 0.03 0.00 89 1010.9
20260904082032 21 231 17.7 48.3 0.00 0.03 0.00 89 1011.0
20260904081533 21 235 17.7 48.3 0.00 0.03 0.00 89 1010.9
20260904081031 21 224 16.1 29.0 0.00 0.03 0.00 89 1010.9
20260904080532 21 251 17.7 40.2 0.00 0.05 0.00 89 1011.0
20260904080027 21 234 16.1 40.2 0.00 0.05 0.00 89 1011.0
20260904075528 21 241 16.1 40.2 0.00 0.05 0.00 89 1010.9
20260904075027 21 235 19.3 41.8 0.00 0.05 0.00 89 1010.9
20260904074527 21 251 19.3 41.8 0.00 0.05 0.00 89 1011.0
20260904074028 21 196 19.3 37.0 0.00 0.05 0.00 89 1011.0
20260904073939 21 236 16.1 41.8 0.00 0.05 0.00 90 1011.2
20260904073603 21 209 20.9 43.5 0.00 0.05 0.00 89 1011.1
20260904073109 21 204 20.9 46.7 0.00 0.05 0.00 89 1011.0
20260904072622 21 235 17.7 46.7 0.00 0.05 0.00 89 1011.2
20260904072146 21 164 16.1 38.6 0.00 0.05 0.00 89 1011.1
20260904071027 21 229 17.7 41.8 0.00 0.05 0.00 90 1011.0
20260904070545 21 172 19.3 43.5 0.00 0.08 0.00 90 1011.1
20260904070029 21 203 17.7 43.5 0.00 0.08 0.00 90 1011.1
20260904065528 21 237 17.7 49.9 0.00 0.08 0.00 90 1011.1
20260904065025 21 164 19.3 49.9 0.00 0.08 0.00 90 1011.1
20260904064527 21 185 17.7 41.8 0.00 0.08 0.00 90 1011.2
20260904064025 21 247 17.7 33.8 0.00 0.08 0.00 90 1011.2
20260904063526 21 201 16.1 33.8 0.00 0.08 0.00 90 1011.2
20260904063024 21 233 16.1 33.8 0.00 0.10 0.00 90 1011.3
20260904062526 21 191 16.1 40.2 0.00 0.10 0.00 90 1011.4
20260904062515 21 194 17.7 41.8 0.00 0.10 0.00 89 1011.5
20260904061525 21 226 16.1 41.8 0.00 0.10 0.00 89 1011.6
20260904061022 20 168 14.5 29.0 0.00 0.10 0.00 89 1011.5
20260904061004 20 233 16.1 29.0 0.00 0.10 0.00 89 1011.7
20260904060023 20 241 14.5 30.6 0.00 0.13 0.00 89 1011.7
20260904055521 20 210 14.5 33.8 0.00 0.13 0.00 89 1011.6
20260904055022 20 294 14.5 33.8 0.00 0.13 0.00 90 1011.5
20260904054524 20 237 12.9 27.4 0.00 0.15 0.00 90 1011.7
20260904054024 20 204 12.9 27.4 0.00 0.15 0.00 90 1011.7
20260904053523 20 193 14.5 29.0 0.00 0.15 0.00 90 1011.9
20260904053022 20 177 14.5 30.6 0.00 0.15 0.00 90 1011.9
20260904052523 20 229 16.1 32.2 0.00 0.15 0.00 90 1012.0
20260904052024 20 213 14.5 43.5 0.00 0.15 0.00 90 1012.1
20260904051525 20 272 11.3 43.5 0.00 0.15 0.00 90 1012.1
20260904051139 20 217 16.1 33.8 0.00 0.15 0.00 89 1012.2
20260904051047 20 210 12.9 29.0 0.00 0.15 0.00 89 1012.3
20260904050021 20 222 17.7 33.8 0.00 0.15 0.00 89 1012.5
20260904045655 20 204 16.1 43.5 0.00 0.15 0.00 89 1012.6
20260904045552 20 241 19.3 43.5 0.00 0.15 0.00 89 1012.5
20260904044634 20 237 14.5 43.5 0.00 0.15 0.00 89 1012.7
20260904044544 20 197 14.5 37.0 0.00 0.15 0.00 89 1012.7
20260904043522 20 215 16.1 43.5 0.00 0.15 0.00 89 1012.7
20260904043022 20 210 14.5 29.0 0.00 0.15 0.00 89 1012.8
20260904042519 20 179 12.9 29.0 0.00 0.15 0.00 89 1012.8
20260904042017 20 255 14.5 29.0 0.00 0.15 0.00 89 1013.0
20260904041957 20 197 12.9 29.0 0.00 0.15 0.00 89 1013.0
20260904041018 20 182 14.5 29.0 0.00 0.15 0.00 89 1013.1
20260904040518 20 216 16.1 37.0 0.00 0.15 0.00 89 1013.1
20260904040019 20 236 14.5 37.0 0.00 0.15 0.00 89 1013.2
20260904035522 20 207 14.5 32.2 0.00 0.15 0.00 89 1013.3
20260904035018 20 214 16.1 33.8 0.00 0.15 0.00 89 1013.3
20260904034521 20 258 16.1 33.8 0.00 0.15 0.00 89 1013.2
20260904034018 20 208 14.5 33.8 0.00 0.15 0.00 89 1013.2
20260904033518 20 245 16.1 30.6 0.00 0.15 0.00 89 1013.3
20260904033017 20 178 16.1 30.6 0.00 0.15 0.00 89 1013.3
20260904032518 20 194 12.9 30.6 0.00 0.15 0.00 89 1013.4
20260904032015 20 218 14.5 37.0 0.00 0.15 0.00 89 1013.4
20260904031515 20 164 14.5 37.0 0.00 0.15 0.00 89 1013.4
20260904031016 20 172 12.9 25.7 0.00 0.15 0.00 89 1013.5
20260904030515 20 243 14.5 32.2 0.00 0.15 0.00 89 1013.5
20260904030504 20 177 12.9 32.2 0.00 0.15 0.00 89 1013.6
20260904025519 20 216 12.9 32.2 0.00 0.15 0.00 90 1013.6
20260904025010 20 223 12.9 32.2 0.00 0.15 0.00 90 1013.7
20260904024509 20 227 14.5 30.6 0.00 0.15 0.00 90 1013.7
20260904024013 20 204 14.5 30.6 0.00 0.15 0.00 90 1013.7
20260904023950 20 214 12.9 25.7 0.00 0.15 0.00 90 1013.9
20260904023011 20 239 14.5 27.4 0.00 0.15 0.00 90 1013.8
20260904022509 20 205 14.5 27.4 0.00 0.15 0.00 90 1013.9
20260904022033 20 197 12.9 30.6 0.00 0.15 0.00 91 1014.0
20260904022016 20 225 12.9 25.7 0.00 0.15 0.00 90 1013.9
20260904021009 20 244 11.3 30.6 0.00 0.15 0.00 91 1013.9
20260904020509 20 205 9.7 25.7 0.00 0.15 0.00 91 1014.1
20260904020021 20 204 11.3 29.0 0.00 0.15 0.00 91 1014.2
20260904015503 20 163 11.3 30.6 0.00 0.15 0.00 91 1014.3
20260904015003 20 231 11.3 30.6 0.00 0.15 0.00 91 1014.3
20260904014502 20 229 9.7 27.4 0.00 0.15 0.00 92 1014.3
20260904014006 20 270 11.3 24.1 0.00 0.15 0.00 92 1014.4
20260904013503 20 220 12.9 24.1 0.00 0.15 0.00 92 1014.4
20260904013003 20 260 9.7 22.5 0.00 0.15 0.00 92 1014.5
20260904012509 20 215 8.0 19.3 0.00 0.15 0.00 92 1014.5
20260904012021 20 232 11.3 24.1 0.00 0.15 0.00 92 1014.7
20260904012005 20 229 9.7 19.3 0.00 0.15 0.00 92 1014.6
20260904011456 20 229 12.9 24.1 0.00 0.15 0.00 91 1015.0
20260904011446 20 207 12.9 25.7 0.00 0.15 0.00 92 1014.9
20260904011207 20 219 12.9 25.7 0.00 0.15 0.00 92 1014.8
20260904005957 20 125 14.5 27.4 0.00 0.15 0.00 91 1015.0
20260904005005 20 250 14.5 32.2 0.00 0.15 0.00 91 1015.0
20260904004506 20 216 12.9 32.2 0.00 0.15 0.00 91 1015.1
20260904004032 20 222 11.3 25.7 0.00 0.15 0.00 90 1015.3
20260904004022 20 224 12.9 25.7 0.00 0.15 0.00 90 1015.3
20260904004006 20 199 11.3 24.1 0.00 0.15 0.00 90 1015.1
20260904003516 20 201 11.3 24.1 0.00 0.15 0.00 90 1015.2
20260904002006 20 217 11.3 25.7 0.00 0.15 0.00 90 1015.3
20260904001606 20 206 11.3 29.0 0.00 0.15 0.00 90 1015.4
20260904001524 20 193 12.9 25.7 0.00 0.15 0.00 90 1015.4
20260904000504 21 218 9.7 29.0 0.00 0.15 0.00 90 1015.4
20260904000012 21 213 9.7 22.5 0.00 0.15 0.00 90 1015.4
20260903235504 21 243 8.0 22.5 0.00 0.15 0.00 90 1015.5
20260903235002 21 189 9.7 17.7 0.00 0.15 0.00 90 1015.6
20260903234507 21 203 9.7 20.9 0.00 0.15 0.00 90 1015.6
20260903234004 21 191 9.7 20.9 0.00 0.15 0.00 90 1015.7
20260903233503 21 266 9.7 22.5 0.00 0.15 0.00 90 1015.8
20260903233004 20 200 11.3 25.7 0.00 0.15 0.00 90 1015.7
20260903232626 21 223 8.0 19.3 0.00 0.15 0.00 90 1015.7
20260903232529 20 203 9.7 25.7 0.00 0.15 0.00 90 1015.6
20260903231504 20 185 9.7 19.3 0.00 0.15 0.00 90 1015.9
20260903231002 21 221 11.3 22.5 0.00 0.15 0.00 90 1016.0
20260903230501 21 235 11.3 22.5 0.00 0.15 0.00 90 1016.0
20260903225958 21 219 11.3 20.9 0.00 0.15 0.00 90 1016.0
20260903225500 20 204 11.3 27.4 0.00 0.15 0.00 90 1016.0
20260903224956 20 201 11.3 27.4 0.00 0.15 0.00 90 1016.0
20260903224501 20 190 11.3 22.5 0.00 0.15 0.00 90 1016.1
20260903223957 20 204 9.7 25.7 0.00 0.15 0.00 90 1016.2
20260903223459 20 183 8.0 25.7 0.00 0.15 0.00 90 1016.2
20260903222959 20 210 8.0 17.7 0.00 0.15 0.00 90 1016.3
20260903222500 21 238 6.4 17.7 0.00 0.15 0.00 90 1016.5
20260903222000 20 208 6.4 14.5 0.00 0.15 0.00 90 1016.4
20260903221500 21 227 8.0 17.7 0.00 0.15 0.00 90 1016.5
20260903221453 21 214 9.7 20.9 0.00 0.15 0.00 90 1016.6
20260903220502 21 231 11.3 20.9 0.00 0.15 0.00 90 1016.5
20260903215957 21 218 9.7 17.7 0.00 0.15 0.15 90 1016.5
20260903215946 21 166 9.7 20.9 0.00 0.15 0.15 90 1016.6
20260903214957 21 220 11.3 22.5 0.00 0.15 0.15 90 1016.7
20260903214450 20 158 12.9 27.4 0.00 0.15 0.15 90 1016.7
20260903213945 20 181 11.3 27.4 0.00 0.15 0.15 90 1016.8
20260903213446 20 207 8.0 20.9 0.00 0.15 0.15 90 1016.8
20260903212947 20 159 8.0 20.9 0.00 0.15 0.15 90 1016.9
20260903212446 20 237 8.0 20.9 0.00 0.15 0.15 90 1016.9
20260903211947 20 235 9.7 24.1 0.00 0.15 0.15 90 1016.9
20260903211532 20 241 9.7 22.5 0.00 0.15 0.15 90 1016.8
20260903211522 20 220 8.0 22.5 0.00 0.15 0.15 91 1016.9
20260903211454 20 177 9.7 24.1 0.00 0.15 0.15 90 1016.7
20260903210441 20 152 8.0 16.1 0.00 0.15 0.15 91 1017.0
20260903205448 20 216 9.7 25.7 0.00 0.15 0.15 91 1017.2
20260903204947 20 231 11.3 25.7 0.00 0.15 0.15 91 1017.3
20260903204446 20 197 9.7 17.7 0.00 0.15 0.15 92 1017.4
20260903203947 20 225 8.0 14.5 0.00 0.15 0.15 92 1017.4
20260903203453 20 212 6.4 14.5 0.00 0.15 0.15 92 1017.3
20260903203442 20 229 6.4 14.5 0.00 0.15 0.15 92 1017.5
20260903202437 20 189 6.4 14.5 0.00 0.15 0.15 92 1017.3
20260903201940 20 211 6.4 12.9 0.00 0.15 0.15 92 1017.4
20260903201438 20 215 6.4 16.1 0.00 0.15 0.15 91 1017.4
20260903200934 20 176 6.4 16.1 0.00 0.15 0.15 91 1017.3
20260903200439 20 217 6.4 16.1 0.00 0.15 0.15 91 1017.4
20260903195936 20 212 6.4 16.1 0.00 0.15 0.15 91 1017.4
20260903195435 20 205 6.4 14.5 0.00 0.15 0.15 91 1017.4
20260903195417 20 230 8.0 20.9 0.00 0.15 0.15 90 1017.4
20260903195102 20 199 4.8 14.5 0.00 0.15 0.15 91 1017.5
20260903194719 20 199 8.0 20.9 0.00 0.15 0.15 90 1017.3
20260903194529 20 230 6.4 19.3 0.00 0.15 0.15 90 1017.5
20260903192935 20 177 8.0 22.5 0.00 0.15 0.15 90 1017.3
20260903192439 20 228 8.0 22.5 0.00 0.15 0.15 90 1017.5
20260903191935 21 242 8.0 16.1 0.00 0.15 0.15 89 1017.4
20260903191923 21 208 8.0 19.3 0.00 0.15 0.15 89 1017.5
20260903190941 21 239 8.0 19.3 0.00 0.15 0.15 89 1017.4
20260903190438 21 194 8.0 20.9 0.00 0.15 0.15 88 1017.4
20260903185936 21 222 9.7 20.9 0.00 0.15 0.15 88 1017.5
20260903185435 21 258 9.7 22.5 0.00 0.15 0.15 88 1017.5
20260903184933 21 246 11.3 22.5 0.00 0.15 0.15 88 1017.5
20260903184433 21 234 9.7 22.5 0.00 0.15 0.15 87 1017.5
20260903183932 21 219 9.7 20.9 0.00 0.15 0.15 87 1017.5
20260903183434 21 220 9.7 25.7 0.00 0.15 0.15 87 1017.5
20260903182936 21 220 9.7 25.7 0.00 0.15 0.15 87 1017.6
20260903182520 21 228 9.7 24.1 0.00 0.15 0.15 87 1017.4
20260903182118 21 277 8.0 22.5 0.00 0.15 0.15 87 1017.5
20260903182100 21 217 9.7 24.1 0.00 0.15 0.15 86 1017.6
20260903182001 21 229 9.7 22.5 0.00 0.15 0.15 87 1017.4
20260903181057 21 237 8.0 19.3 0.00 0.15 0.15 87 1017.6
20260903180536 21 184 8.0 19.3 0.00 0.15 0.15 86 1017.6
20260903174935 21 235 9.7 22.5 0.00 0.15 0.15 86 1017.5
20260903174430 21 244 11.3 20.9 0.00 0.15 0.15 86 1017.6
20260903173930 21 194 12.9 22.5 0.00 0.15 0.15 85 1017.8
20260903173432 22 230 12.9 25.7 0.00 0.15 0.15 85 1017.8
20260903172959 21 228 14.5 33.8 0.00 0.15 0.15 86 1017.8
20260903172936 22 262 12.9 25.7 0.00 0.15 0.15 86 1017.8
20260903171931 21 221 12.9 33.8 0.00 0.15 0.15 85 1017.8
20260903171430 21 234 11.3 22.5 0.00 0.15 0.15 85 1017.8
20260903171006 21 219 12.9 27.4 0.00 0.15 0.15 85 1017.5
20260903170941 21 225 12.9 25.7 0.00 0.15 0.15 85 1017.6
20260903165931 21 232 12.9 27.4 0.00 0.15 0.15 85 1017.5
20260903165430 22 219 14.5 27.4 0.00 0.15 0.15 84 1017.6
20260903164931 22 192 14.5 30.6 0.00 0.15 0.15 84 1017.6
20260903164433 22 240 14.5 30.6 0.00 0.15 0.15 84 1017.6
20260903163933 22 187 16.1 30.6 0.00 0.15 0.15 83 1017.5
20260903163433 22 210 16.1 30.6 0.00 0.15 0.15 83 1017.6
20260903163039 22 190 12.9 29.0 0.00 0.15 0.15 84 1018.0
20260903163029 22 233 12.9 29.0 0.00 0.15 0.15 83 1018.0
20260903162945 22 243 12.9 29.0 0.00 0.15 0.15 84 1017.8
20260903161434 22 256 14.5 27.4 0.00 0.15 0.15 83 1017.9
20260903160932 22 220 14.5 27.4 0.00 0.15 0.15 83 1017.8
20260903160537 22 249 16.1 35.4 0.00 0.15 0.15 81 1017.8
20260903160451 22 233 14.5 29.0 0.00 0.15 0.15 82 1017.5
20260903160140 22 222 16.1 30.6 0.00 0.15 0.15 82 1017.6
20260903154931 22 228 14.5 35.4 0.00 0.15 0.15 81 1017.8
20260903154430 22 224 12.9 22.5 0.00 0.15 0.15 81 1017.9
20260903153930 22 234 14.5 33.8 0.00 0.15 0.15 80 1017.9
20260903153432 22 237 14.5 33.8 0.00 0.15 0.15 80 1018.0
20260903152934 22 194 12.9 30.6 0.00 0.15 0.15 80 1018.0
20260903152432 22 201 14.5 27.4 0.00 0.15 0.15 80 1017.9
20260903152425 22 225 12.9 27.4 0.00 0.15 0.15 79 1018.0
20260903151433 23 204 14.5 27.4 0.00 0.15 0.15 78 1018.0
20260903150931 23 231 14.5 29.0 0.00 0.15 0.15 78 1018.1
20260903150432 23 227 16.1 29.0 0.00 0.15 0.15 78 1018.0
20260903150000 22 236 19.3 41.8 0.00 0.15 0.15 77 1017.9
20260903145938 22 241 17.7 30.6 0.00 0.15 0.15 78 1017.9
20260903144931 23 237 20.9 41.8 0.00 0.15 0.15 77 1017.8
20260903144432 22 268 22.5 46.7 0.00 0.15 0.15 77 1017.9
20260903143933 22 190 22.5 46.7 0.00 0.15 0.15 77 1017.8
20260903143432 22 231 20.9 40.2 0.00 0.15 0.15 79 1017.8
20260903142930 22 240 20.9 40.2 0.00 0.15 0.15 79 1017.8
20260903142432 22 199 20.9 41.8 0.00 0.15 0.15 78 1017.8
20260903141934 22 229 22.5 41.8 0.00 0.15 0.15 78 1017.6
20260903141430 23 211 20.9 38.6 0.00 0.15 0.15 78 1017.8
20260903140950 22 233 17.7 40.2 0.00 0.15 0.15 80 1017.8
20260903140933 23 258 17.7 35.4 0.00 0.15 0.15 79 1017.8
20260903140644 22 242 16.1 40.2 0.00 0.15 0.15 81 1017.9
20260903135423 22 197 16.1 38.6 0.00 0.15 0.15 80 1017.7
20260903134919 22 234 19.3 33.8 0.00 0.15 0.15 81 1017.9
20260903134413 22 256 20.9 37.0 0.00 0.15 0.15 79 1017.9
20260903133907 22 243 19.3 37.0 0.00 0.15 0.15 77 1017.8
20260903133518 22 273 17.7 37.0 0.00 0.15 0.15 77 1017.7
20260903133422 22 272 17.7 37.0 0.00 0.15 0.15 79 1017.8
20260903132405 22 195 19.3 41.8 0.00 0.15 0.15 79 1017.7
20260903131909 22 252 22.5 46.7 0.00 0.15 0.15 78 1017.6